DW6449 Weather Reports


Display with metric or nautical units.
time (UTC)temp
F
wind
direction
speed
MPH
gust
MPH
rain 1hr
in
rain 24hr
in
rain mn
in
humidity
%
barometer
mb
20260904221505 62 254 0.0 0.0 0.00 0.00 0.00 86 1018.7
20260904220026 62 253 0.0 0.0 0.00 0.00 0.00 86 1018.5
20260904214547 62 254 0.0 0.0 0.00 0.00 0.00 85 1018.2
20260904213101 63 254 0.0 0.0 0.00 0.00 0.00 85 1018.0
20260904211516 63 254 0.0 0.0 0.00 0.00 0.00 84 1017.9
20260904210028 64 253 0.0 0.0 0.00 0.00 0.00 83 1017.8
20260904204540 64 254 0.0 0.0 0.00 0.00 0.00 82 1017.8
20260904203103 65 253 0.0 0.0 0.00 0.00 0.00 82 1017.8
20260904201505 66 254 0.0 0.0 0.00 0.00 0.00 80 1017.5
20260904200105 66 253 0.0 0.0 0.00 0.00 0.00 80 1017.3
20260904194512 67 254 0.0 1.0 0.00 0.00 0.00 79 1017.3
20260904193024 68 254 0.0 0.0 0.00 0.00 0.00 78 1017.1
20260904191553 69 254 0.0 0.0 0.00 0.00 0.00 76 1017.0
20260904190017 70 254 0.0 0.0 0.00 0.00 0.00 74 1016.7
20260904184546 71 254 0.0 0.0 0.00 0.00 0.00 72 1016.5
20260904183016 72 253 0.0 0.0 0.00 0.00 0.00 69 1016.4
20260904181531 73 254 0.0 0.0 0.00 0.00 0.00 67 1016.1
20260904180034 74 253 0.0 0.0 0.00 0.00 0.00 65 1016.1
20260904174550 76 253 0.0 0.0 0.00 0.00 0.00 62 1015.9
20260904173052 77 254 0.0 0.0 0.00 0.00 0.00 57 1015.8
20260904171519 79 253 0.0 1.0 0.00 0.00 0.00 55 1015.7
20260904170053 80 254 0.0 0.0 0.00 0.00 0.00 52 1015.7
20260904164513 82 253 0.0 1.0 0.00 0.00 0.00 48 1015.7
20260904163027 85 254 0.0 3.0 0.00 0.00 0.00 44 1015.8
20260904161559 87 163 0.0 1.0 0.00 0.00 0.00 41 1015.7
20260904160010 89 218 0.0 1.0 0.00 0.00 0.00 38 1015.8
20260904154541 89 61 0.0 5.0 0.00 0.00 0.00 37 1016.0
20260904153100 90 44 0.0 3.0 0.00 0.00 0.00 35 1016.0
20260904151507 90 162 1.0 6.0 0.00 0.00 0.00 38 1016.2
20260904150033 90 195 0.0 5.0 0.00 0.00 0.00 38 1016.3
20260904144541 90 153 2.0 6.0 0.00 0.00 0.00 39 1016.4
20260904143058 90 285 0.0 6.0 0.00 0.00 0.00 40 1016.5
20260904141542 89 109 0.0 10.0 0.00 0.00 0.00 42 1016.6
20260904140056 89 278 1.0 7.0 0.00 0.00 0.00 41 1016.7
20260904134520 89 110 1.0 6.0 0.00 0.00 0.00 39 1016.7
20260904133057 88 106 0.0 7.0 0.00 0.00 0.00 40 1016.8
20260904131501 88 205 2.0 8.0 0.00 0.00 0.00 42 1016.9
20260904130012 88 160 0.0 3.0 0.00 0.00 0.00 40 1017.1
20260904124528 87 119 0.0 6.0 0.00 0.00 0.00 41 1017.4
20260904123101 87 70 1.0 5.0 0.00 0.00 0.00 41 1017.6
20260904121628 87 214 0.0 4.0 0.00 0.00 0.00 46 1017.8
20260904120105 87 207 0.0 6.0 0.00 0.00 0.00 45 1018.1
20260904114504 86 230 1.0 6.0 0.00 0.00 0.00 46 1018.3
20260904113030 86 51 0.0 2.0 0.00 0.00 0.00 44 1018.4
20260904111541 85 210 1.0 4.0 0.00 0.00 0.00 46 1018.7
20260904110052 84 250 0.0 4.0 0.00 0.00 0.00 44 1018.9
20260904104502 83 253 1.0 4.0 0.00 0.00 0.00 47 1019.2
20260904103019 83 359 0.0 5.0 0.00 0.00 0.00 44 1019.3
20260904101528 82 89 0.0 4.0 0.00 0.00 0.00 47 1019.3
20260904100043 82 90 0.0 5.0 0.00 0.00 0.00 47 1019.6
20260904094555 82 193 0.0 2.0 0.00 0.00 0.00 49 1019.7
20260904093008 81 159 0.0 5.0 0.00 0.00 0.00 47 1019.9
20260904091531 78 166 0.0 5.0 0.00 0.00 0.00 55 1019.9
20260904090033 76 207 1.0 6.0 0.00 0.00 0.00 55 1020.0
20260904084542 73 236 0.0 0.0 0.00 0.00 0.00 66 1019.9
20260904083043 69 236 0.0 0.0 0.00 0.00 0.00 74 1019.9
20260904081558 65 236 0.0 0.0 0.00 0.00 0.00 81 1020.1
20260904080009 63 236 0.0 0.0 0.00 0.00 0.00 83 1020.2
20260904074515 61 236 0.0 0.0 0.00 0.00 0.00 85 1020.2
20260904073035 60 236 0.0 0.0 0.00 0.00 0.00 87 1020.3
20260904071606 58 236 0.0 3.0 0.00 0.00 0.00 89 1020.3
20260904070112 57 219 0.0 2.0 0.00 0.00 0.00 90 1020.4
20260904064513 56 224 0.0 1.0 0.00 0.00 0.00 91 1020.4
20260904063052 54 236 0.0 1.0 0.00 0.00 0.00 93 1020.5
20260904061559 53 238 0.0 1.0 0.00 0.00 0.00 93 1020.4
20260904060028 53 250 0.0 0.0 0.00 0.00 0.00 92 1020.6
20260904054541 52 250 0.0 1.0 0.00 0.00 0.00 92 1020.6
20260904053103 52 250 0.0 0.0 0.00 0.00 0.00 92 1020.7
20260904051506 52 250 0.0 0.0 0.00 0.00 0.00 92 1020.7
20260904050033 52 250 0.0 0.0 0.00 0.00 0.00 92 1020.6
20260904044549 53 250 0.0 1.0 0.00 0.00 0.00 92 1020.8
20260904043106 53 250 0.0 0.0 0.00 0.00 0.00 92 1020.9
20260904041520 53 250 0.0 1.0 0.00 0.00 0.00 92 1021.0
20260904040035 53 250 0.0 0.0 0.00 0.00 0.00 92 1021.1
20260904034547 53 250 0.0 0.0 0.00 0.00 0.00 91 1021.3
20260904033104 53 250 0.0 0.0 0.00 0.00 0.00 91 1021.4
20260904031502 54 250 0.0 0.0 0.00 0.00 0.00 91 1021.4
20260904030015 54 250 0.0 0.0 0.00 0.00 0.00 91 1021.5
20260904024528 54 250 0.0 1.0 0.00 0.00 0.00 91 1021.5
20260904023048 54 250 0.0 0.0 0.00 0.00 0.00 91 1021.6
20260904021607 54 250 0.0 0.0 0.00 0.00 0.00 90 1021.7
20260904020009 55 250 0.0 1.0 0.00 0.00 0.00 91 1021.9
20260904014525 55 250 0.0 1.0 0.00 0.00 0.00 90 1022.0
20260904013039 55 250 0.0 0.0 0.00 0.00 0.00 90 1022.0
20260904011553 55 250 0.0 0.0 0.00 0.00 0.00 90 1022.1
20260904010005 55 250 0.0 1.0 0.00 0.00 0.00 90 1022.2
20260904004559 55 250 0.0 1.0 0.00 0.00 0.00 90 1022.2
20260904003006 55 250 0.0 0.0 0.00 0.00 0.00 90 1022.4
20260904001522 56 250 0.0 0.0 0.00 0.00 0.00 89 1022.5
20260904000032 56 250 0.0 0.0 0.00 0.00 0.00 89 1022.7
20260903234549 56 250 0.0 0.0 0.00 0.00 0.00 89 1022.8
20260903233056 57 250 0.0 1.0 0.00 0.00 0.00 88 1022.8
20260903231502 57 250 0.0 0.0 0.00 0.00 0.00 88 1022.9
20260903230021 57 250 0.0 0.0 0.00 0.00 0.00 88 1022.8
20260903224534 57 250 0.0 0.0 0.00 0.00 0.00 88 1022.7
20260903223042 57 283 0.0 0.0 0.00 0.00 0.00 88 1022.8